Location: Canazei
(46.4667°N, 11.7667°E)
Time: 06:57:24
(UTC+00:00)

Cosmos 1703 Rocket - Pass Details

Date: 21 April 2021
Orbit: 606 x 633 km, 82.5° (Epoch: 15 May)

Event Time Altitude Azimuth Distance (km) Brightness Sun altitude
Exits shadow 01:51:27 60° 260° (W) 700 3.5 -21.6°
Maximum altitude 01:51:44 61° 281° (W) 689 3.5 -21.5°
Drops below altitude 10° 01:56:03 10° 3° (N) 1,968 6.8 -21.0°
Sets 01:58:18 0° 7° (N) 2,878 7.8 -20.7°
